{"data":{"norad_id":67747,"intl_designator":"2026-027B","name":"2026-027B","alt_names":[],"object_type":"PAYLOAD","status":"ACTIVE","operator":null,"country":"PRC","launch_date":"2026-02-12","launch_site_code":"SCSLA","launch_vehicle":null,"mission":null,"orbit_class":"UNKNOWN","rcs_meters":null,"size_class":null,"mass_kg":null,"dimensions":null,"purposes":[],"wikipedia_slug":null,"has_3d_model":false,"image_url":null,"decayed_at":null,"tle_current":{"epoch":"2026-05-25T01:53:48.063264Z","epoch_age_seconds":64261,"freshness":"FRESH","line1":"1 67747U 26027B   26145.07902851  .00005480  00000+0  26573-3 0  9990","line2":"2 67747  97.5027 273.4283 0008674 301.4039  58.6346 15.18899012 15458","mean_motion":15.18899012,"eccentricity":0.0008674,"inclination_deg":97.5027,"raan_deg":273.4283,"arg_perigee_deg":301.4039,"mean_anomaly_deg":58.6346,"bstar":0.00026573,"rev_number":1545,"period_min":94.805512981662,"perigee_km":503.1927745531,"apogee_km":515.14086922332,"semimajor_km":6887.3038218882,"source":"CELESTRAK","updated_at":"2026-05-25T13:38:07.230305Z"}}}